Вернуться в каталог

ATLAS CENTAUR R/B

АктивенGTO
NORAD 12363·ROCKET BODY·🇺🇸 United States

Запущен Feb 21, 1981 с Cape Canaveral Space Force Station

Loading…

TLE

УстаревшееSource: Space-Track

Эпоха: Sep 13, 2026, 20:11 UTC

1 12363U 81018B   26256.84102412 -.00000115  00000-0  97638-4 0  9991
2 12363  20.8157 304.0855 7171476 125.8717 323.0000  2.22125686369391

Отслеживайте ATLAS CENTAUR R/B в реальном времени с AllMySat

Download on the App Store